This demonstration page uses our WeatherBlox Daily Observations layout. Learn more.

Left ArrowRight Arrow

38.20091, -84.87328

Hourly Observations for July 28, 2020

Temp ( °F °C ) Dew Point ( °F °C ) Humidity (%) Winds ( mph kmh ) Pressure ( in mb ) Visibility ( mi km ) Precip ( " mm )
12:53 am 00:53 Partly Cloudy 75 23.9 69 20.6 82 82 NNW 5 7 29.95 1014 10 16 0.00 0.00
1:53 am 01:53 Cloudy 75 23.9 69 20.6 82 82 Calm 29.94 1014 10 16 0.00 0.00
2:53 am 02:53 Cloudy with Light Rain 76 24.4 71 21.7 85 85 Calm 29.93 1014 10 16 0.00 0.00
3:40 am 03:40 Partly Cloudy with Nearby Thunderstorms 75 23.9 71 21.7 88 88 SSW 5 7 29.93 1014 10 16 0.00 0.00
3:53 am 03:53 Mostly Clear with Nearby Thunderstorms 75 23.9 71 21.7 88 88 S 5 7 29.93 1014 10 16 0.00 0.00
4:06 am 04:06 Mostly Clear 75 23.9 71 21.7 88 88 S 5 7 29.93 1014 10 16 0.00 0.00
4:53 am 04:53 Clear 74 23.3 71 21.7 91 91 Calm 29.92 1013 10 16 0.00 0.00
5:53 am 05:53 Mostly Cloudy 74 23.3 71 21.7 91 91 WSW 5 7 29.94 1014 10 16 0.00 0.00
6:46 am 06:46 Cloudy 75 23.9 72 22.2 90 90 Calm 29.96 1015 10 16 0.00 0.00
6:53 am 06:53 Cloudy 75 23.9 71 21.7 88 88 Calm 29.96 1015 10 16 0.00 0.00
7:15 am 07:15 Mostly Cloudy 75 23.9 71 21.7 88 88 Calm 29.96 1015 10 16 0.00 0.00
7:29 am 07:29 Cloudy 75 23.9 71 21.7 88 88 Calm 29.96 1015 10 16 0.00 0.00
7:40 am 07:40 Cloudy 75 23.9 72 22.2 90 90 Calm 29.97 1015 10 16 0.00 0.00
7:53 am 07:53 Cloudy 75 23.9 71 21.7 88 88 Calm 29.97 1015 10 16 0.00 0.00
8:53 am 08:53 Cloudy 77 25 72 22.2 85 85 WSW 3 6 29.98 1015 10 16 0.00 0.00
9:11 am 09:11 Cloudy 77 25 72 22.2 85 85 Calm 29.99 1015 10 16 0.00 0.00
9:28 am 09:28 Cloudy 78 25.6 71 21.7 79 79 Calm 29.99 1015 10 16 0.00 0.00
9:41 am 09:41 Mostly Cloudy 78 25.6 71 21.7 79 79 Calm 29.99 1015 10 16 0.00 0.00
9:53 am 09:53 Mostly Cloudy 78 25.6 71 21.7 79 79 Calm 29.99 1016 10 16 0.00 0.00
10:53 am 10:53 Mostly Sunny 80 26.7 71 21.7 74 74 Calm 30.00 1016 10 16 0.00 0.00
11:11 am 11:11 Mostly Cloudy 81 27.2 71 21.7 72 72 VRB 5 7 29.98 1015 10 16 0.00 0.00
11:31 am 11:31 Partly Cloudy 81 27.2 70 21.1 69 69 Calm 29.98 1015 10 16 0.00 0.00
11:53 am 11:53 Mostly Sunny 82 27.8 72 22.2 72 72 VRB 5 7 30.00 1016 10 16 0.00 0.00
12:10 pm 12:10 Mostly Cloudy 83 28.3 71 21.7 67 67 W 3 6 29.99 1016 10 16 0.00 0.00
12:31 pm 12:31 Partly Cloudy 83 28.3 71 21.7 67 67 SSW 6 9 29.98 1015 10 16 0.00 0.00
12:53 pm 12:53 Partly Cloudy 86 30 71 21.7 61 61 VRB 6 9 29.98 1015 10 16 0.00 0.00
1:53 pm 13:53 Mostly Cloudy 85 29.4 70 21.1 61 61 undefined N/A 29.96 1015 10 16 0.00 0.00
2:53 pm 14:53 Partly Cloudy 87 30.6 68 20 53 53 undefined N/A 29.94 1014 10 16 0.00 0.00
3:53 pm 15:53 Cloudy 89 31.7 68 20 50 50 VRB 3 6 29.93 1014 10 16 0.00 0.00
4:53 pm 16:53 Sunny 88 31.1 69 20.6 54 54 WSW 8 13 29.93 1013 10 16 0.00 0.00
5:53 pm 17:53 Mostly Cloudy 87 30.6 68 20 53 53 W 6 9 29.92 1013 10 16 0.00 0.00
6:53 pm 18:53 Mostly Cloudy 87 30.6 68 20 53 53 VRB 7 11 29.91 1013 10 16 0.00 0.00
8:53 pm 20:53 Clear 84 28.9 66 18.9 55 55 NNW 3 6 29.92 1013 10 16 0.00 0.00
9:53 pm 21:53 Clear 78 25.6 66 18.9 67 67 Calm 29.93 1014 10 16 0.00 0.00
10:53 pm 22:53 Partly Cloudy 76 24.4 66 18.9 72 72 Calm 29.95 1014 10 16 0.00 0.00
11:53 pm 23:53 Cloudy 76 24.4 66 18.9 72 72 Calm 29.96 1015 10 16 0.00 0.00

Powered by AerisWeather